This is the latest recevied weather packets stored in our database for station/object N4MGC. If no packets are shown the sender has not sent any weather packets the latest 10 day(s).
| Time | Temp. | Humidity | Pressure | Rain* | Wind** | Luminosity | Snow |
|---|---|---|---|---|---|---|---|
| 1777844407 | 23.33° C | 36% | 1017.9 hPa | 0 mm | - | 397 W/m² | - |
| 1777844105 | 22.78° C | 37% | 1018.1 hPa | 0 mm | - | 408 W/m² | - |
| 1777843802 | 22.78° C | 36% | 1018.2 hPa | 0 mm | - | 441 W/m² | - |
| 1777843499 | 22.78° C | 37% | 1018.1 hPa | 0 mm | - | 446 W/m² | - |
| 1777843196 | 22.78° C | 35% | 1018.1 hPa | 0 mm | - | 454 W/m² | - |
| 1777842893 | 22.78° C | 34% | 1018 hPa | 0 mm | - | 427 W/m² | - |
| 1777842589 | 22.78° C | 36% | 1018.3 hPa | 0 mm | - | 494 W/m² | - |
| 1777842285 | 23.33° C | 35% | 1018.1 hPa | 0 mm | - | 493 W/m² | - |
| 1777841980 | 22.22° C | 38% | 1018.3 hPa | 0 mm | - | 525 W/m² | - |
| 1777841677 | 22.78° C | 41% | 1018.4 hPa | 0 mm | - | 528 W/m² | - |
| 1777841373 | 22.78° C | 37% | 1018.5 hPa | 0 mm | - | 453 W/m² | - |
| 1777841071 | 22.22° C | 35% | 1018.3 hPa | 0 mm | - | 425 W/m² | - |
| 1777840768 | 22.78° C | 38% | 1018.7 hPa | 0 mm | - | 555 W/m² | - |
| 1777840465 | 23.33° C | 35% | 1018.8 hPa | 0 mm | - | 563 W/m² | - |
| 1777840162 | 22.22° C | 37% | 1018.8 hPa | 0 mm | - | 561 W/m² | - |
| 1777839860 | 23.33° C | 38% | 1019 hPa | 0 mm | - | 581 W/m² | - |
| 1777839559 | 22.78° C | 39% | 1019.1 hPa | 0 mm | - | 571 W/m² | - |
| 1777839255 | 22.22° C | 37% | 1019 hPa | 0 mm | - | 570 W/m² | - |
| 1777838953 | 22.22° C | 37% | 1019.3 hPa | 0 mm | - | 560 W/m² | - |
| 1777838649 | 22.22° C | 38% | 1019.4 hPa | 0 mm | - | 582 W/m² | - |
| 1777838346 | 21.67° C | 36% | 1019.5 hPa | 0 mm | - | 620 W/m² | - |
| 1777838043 | 21.67° C | 39% | 1019.6 hPa | 0 mm | - | 656 W/m² | - |
| 1777837739 | 22.22° C | 34% | 1019.8 hPa | 0 mm | - | 668 W/m² | - |
| 1777837436 | 22.22° C | 38% | 1019.6 hPa | 0 mm | - | 676 W/m² | - |
| 1777837132 | 21.67° C | 42% | 1019.9 hPa | 0 mm | - | 621 W/m² | - |
* Rain latest hour (hover to see other rain measurements)
** Current wind speed in m/s (hover to see current wind gust speed)